TimeMDT,TemperatureF,Dew PointF,Humidity,Sea Level PressureIn,VisibilityMPH,Wind Direction,Wind SpeedMPH,Gust SpeedMPH,PrecipitationIn,Events,Conditions,WindDirDegrees,DateUTC
12:53 AM,32.0,15.1,50,30.22,10.0,East,4.6,-,N/A,,Overcast,90,2012-10-27 06:53:00
1:53 AM,30.9,19.0,61,30.23,10.0,Calm,Calm,-,N/A,,Overcast,0,2012-10-27 07:53:00
2:53 AM,30.9,17.1,57,30.22,10.0,SE,4.6,-,N/A,,Mostly Cloudy,130,2012-10-27 08:53:00
3:53 AM,28.9,18.0,64,30.22,10.0,SE,6.9,-,N/A,,Overcast,130,2012-10-27 09:53:00
4:53 AM,27.0,15.1,61,30.23,10.0,ESE,6.9,-,N/A,,Clear,110,2012-10-27 10:53:00
5:53 AM,27.0,14.0,58,30.24,10.0,East,4.6,-,N/A,,Clear,80,2012-10-27 11:53:00
6:53 AM,24.1,15.1,69,30.28,10.0,Calm,Calm,-,N/A,,Clear,0,2012-10-27 12:53:00
7:53 AM,24.1,15.1,69,30.31,10.0,East,3.5,-,N/A,,Clear,80,2012-10-27 13:53:00
8:53 AM,30.0,12.9,49,30.31,10.0,Calm,Calm,-,N/A,,Clear,0,2012-10-27 14:53:00
9:53 AM,33.1,15.1,48,30.32,10.0,Calm,Calm,-,N/A,,Clear,0,2012-10-27 15:53:00
10:53 AM,39.9,15.1,36,30.27,10.0,Calm,Calm,-,N/A,,Clear,0,2012-10-27 16:53:00
11:53 AM,45.0,12.9,27,30.24,10.0,Calm,Calm,-,N/A,,Clear,0,2012-10-27 17:53:00
12:53 PM,48.9,10.0,21,30.20,10.0,Variable,3.5,-,N/A,,Clear,0,2012-10-27 18:53:00
1:53 PM,51.1,10.0,19,30.17,10.0,Calm,Calm,-,N/A,,Clear,0,2012-10-27 19:53:00
2:53 PM,52.0,10.9,19,30.14,10.0,NW,8.1,-,N/A,,Clear,320,2012-10-27 20:53:00
3:53 PM,52.0,12.0,20,30.14,10.0,North,6.9,-,N/A,,Clear,350,2012-10-27 21:53:00
4:53 PM,52.0,12.0,20,30.15,10.0,NW,10.4,-,N/A,,Clear,310,2012-10-27 22:53:00
5:53 PM,50.0,12.9,23,30.14,10.0,West,5.8,-,N/A,,Clear,280,2012-10-27 23:53:00
6:53 PM,44.1,12.9,28,30.19,10.0,Calm,Calm,-,N/A,,Clear,0,2012-10-28 00:53:00
7:53 PM,41.0,12.0,31,30.22,10.0,ENE,3.5,-,N/A,,Clear,70,2012-10-28 01:53:00
8:53 PM,37.0,10.9,34,30.22,10.0,East,5.8,-,N/A,,Clear,80,2012-10-28 02:53:00
9:53 PM,35.6,12.2,38,30.19,10.0,ESE,4.6,-,N/A,,Clear,120,2012-10-28 03:53:00
10:53 PM,37.9,12.9,36,30.20,10.0,East,6.9,-,N/A,,Clear,80,2012-10-28 04:53:00
11:53 PM,37.0,12.9,37,30.19,10.0,Calm,Calm,-,N/A,,Clear,0,2012-10-28 05:53:00